Location: Unspecified
(57.6483°N, 3.3184°W)
Time: 21:54:41
(UTC+00:00)

N. Korean satellite - Visible Passes

Search period start: 26 February 2021 00:00
Search period end: 08 March 2021 00:00
Orbit: 451 x 503 km, 97.2° (Epoch: 26 February)

Date Brightness Start Highest point End Pass type
(mag) Time Alt. Az. Time Alt. Az. Time Alt. Az.
26 Feb 9.9 04:31:27 10° ENE 04:32:56 12° E 04:34:24 10° ESE visible
26 Feb 6.4 06:03:18 10° NNE 06:06:47 88° WNW 06:10:18 10° SSW visible
27 Feb 7.5 05:36:36 10° NNE 05:40:01 49° E 05:43:26 10° S visible
28 Feb 8.8 05:10:06 10° NE 05:13:08 27° E 05:16:13 10° SSE visible
01 Mar 9.7 04:43:55 10° NE 04:46:11 16° E 04:48:27 10° SE visible
01 Mar 6.5 06:16:24 10° N 06:19:52 65° WNW 06:23:23 10° SSW visible
02 Mar 6.9 05:49:37 10° NNE 05:53:07 68° ESE 05:56:40 10° S visible
03 Mar 8.2 05:22:59 10° NNE 05:26:17 36° E 05:29:36 10° SSE visible
04 Mar 9.3 04:56:35 10° NE 04:59:21 21° E 05:02:07 10° SE visible
05 Mar 9.9 04:30:44 10° ENE 04:32:19 12° E 04:33:54 10° ESE visible
05 Mar 6.5 06:02:37 10° NNE 06:06:10 88° WNW 06:09:45 10° SSW visible
06 Mar 7.6 05:35:54 10° NNE 05:39:20 49° E 05:42:50 10° S visible
07 Mar 8.8 05:09:20 10° NE 05:12:27 28° E 05:15:34 10° SSE visible
